GFSWCAN_250_rhum_222.txt.gz
RH
3 3 3 3 2 2 2 2 2 2 2 2 3 3 5 10 14 19 80 100 100 100 86 100 100 100 100 100 100 100 100 100 100 100 100 100 100 100 100 100 100 100 88 100 100 100 100 100 100 100 100 100 100 100
4 4 4 3 3 3 2 2 2 2 2 2 3 3 3 6 10 15 54 100 100 100 98 100 100 100 100 100 100 100 100 100 100 100 100 100 100 100 100 100 100 100 98 100 100 100 100 100 100 100 100 100 100 100
4 3 4 4 3 3 3 3 3 2 2 3 3 3 3 4 8 16 57 100 100 100 100 100 100 100 100 100 100 100 100 100 100 100 100 100 99 99 96 100 100 100 100 100 100 99 96 100 100 100 100 95 99 99
5 4 4 4 3 3 3 3 3 3 3 2 2 3 4 4 7 13 25 85 100 100 100 100 99 100 100 100 100 100 100 100 100 100 100 100 100 100 100 100 100 100 100 100 100 100 100 100 100 100 100 100 100 87
8 5 5 4 4 4 3 3 3 3 3 3 3 3 4 4 6 11 17 46 100 100 100 100 100 100 100 100 100 100 100 100 100 100 100 100 100 100 100 100 100 100 100 100 100 100 100 100 100 100 100 100 100 97
13 8 6 5 4 4 3 3 3 3 3 3 3 3 4 5 6 8 14 18 69 100 100 100 100 100 100 100 100 100 100 100 100 100 100 100 100 100 100 98 100 100 100 100 100 100 100 100 100 100 100 98 92 96
20 12 9 6 5 5 4 4 4 3 3 3 3 4 4 4 6 8 10 16 21 34 66 100 100 100 100 100 100 100 100 100 100 100 100 99 100 100 100 100 90 87 94 100 100 100 100 100 100 100 100 100 100 80
11 21 12 9 7 6 5 5 5 4 4 4 4 4 4 4 6 8 11 15 20 24 34 77 100 100 100 100 100 100 100 100 100 100 100 100 100 100 100 100 100 100 95 93 92 92 90 99 96 87 87 93 97 100
15 12 23 14 9 8 7 6 6 6 6 5 5 5 4 4 5 6 9 12 15 18 22 26 40 86 100 100 100 100 100 100 100 100 100 100 100 100 100 100 94 100 100 100 100 100 100 100 89 92 97 100 98 100
20 15 12 20 17 11 9 8 8 8 7 7 6 6 6 6 6 7 8 10 14 18 22 26 29 47 79 96 100 100 100 100 100 100 100 100 100 100 100 100 100 100 100 100 100 100 100 100 100 100 98 97 98 97
32 20 15 14 17 20 13 12 11 11 10 10 9 8 7 7 7 7 7 8 10 14 17 21 26 38 48 71 100 100 100 100 100 100 100 100 100 100 100 100 100 100 100 100 100 100 100 100 100 100 100 99 92 93
31 28 20 16 15 15 20 15 15 14 13 13 13 13 13 13 12 11 11 11 12 13 16 18 23 37 53 65 69 82 96 100 100 100 100 100 100 100 100 100 100 100 100 100 100 100 95 99 99 100 96 92 95 88
26 31 26 19 16 16 15 20 22 16 16 16 17 18 17 17 17 18 17 16 15 16 17 16 17 18 20 23 33 44 56 77 100 100 100 100 100 100 100 100 100 100 96 90 89 86 92 82 84 80 76 86 78 66
25 27 29 27 20 16 16 15 16 26 28 22 20 20 19 21 22 23 23 22 20 20 20 20 20 20 20 19 20 22 27 34 41 48 58 66 78 90 96 96 93 88 84 68 54 56 59 50 52 55 57 68 66 49
31 26 26 25 27 24 16 15 15 16 18 25 32 28 24 22 21 23 25 27 28 29 29 28 27 27 26 26 25 25 24 24 24 25 25 24 23 24 26 28 29 30 32 32 36 41 44 52 58 50 38 25 14 12
38 29 26 26 26 27 26 20 15 15 15 15 16 21 27 34 31 28 25 23 21 21 22 24 24 25 25 26 28 28 29 32 32 33 31 31 30 31 33 35 35 30 28 29 29 28 25 23 22 17 13 12 13 12
54 38 28 26 24 24 26 28 24 18 15 14 14 14 15 15 15 16 18 25 31 32 30 29 27 25 25 24 24 23 22 22 22 22 22 21 21 21 21 23 27 29 25 20 16 14 13 13 13 12 12 12 11 10
58 54 39 30 27 25 24 22 25 25 23 18 15 14 13 13 13 13 14 14 14 14 13 12 12 12 12 13 13 15 16 16 16 15 14 14 14 12 11 11 12 13 13 13 12 11 11 11 11 11 12 12 12 11
67 65 58 43 34 31 31 28 25 27 28 25 23 20 17 15 14 14 13 13 13 13 12 13 13 13 13 13 13 13 13 13 13 12 12 12 12 11 11 11 11 10 10 11 11 12 12 13 13 13 12 11 11 12
69 73 69 62 45 35 32 33 31 28 27 28 26 26 24 22 20 18 15 14 13 13 13 13 13 13 13 12 12 12 12 12 12 12 12 12 11 12 12 11 11 12 12 12 11 11 12 12 12 12 12 11 10 9
73 76 78 73 61 49 38 34 35 34 32 29 28 26 27 25 24 23 23 21 19 18 17 16 15 14 13 13 13 13 12 12 12 12 12 12 11 11 12 12 12 12 12 13 13 12 11 10 10 9 9 9 10 10
81 75 76 83 74 63 50 36 34 33 34 34 32 29 27 27 31 31 27 25 25 24 23 22 21 21 20 20 20 20 19 18 18 17 17 17 17 16 15 14 13 12 12 12 12 12 12 11 11 11 11 11 10 9
74 75 76 88 85 69 65 53 42 34 31 30 31 31 30 30 31 31 32 31 30 30 29 28 27 26 25 24 23 22 20 19 19 18 17 17 17 17 16 15 15 15 15 15 14 13 13 13 12 12 10 9 8 8
72 74 74 79 92 77 69 69 62 51 42 36 34 31 29 28 28 28 27 27 28 28 27 26 26 26 25 24 23 22 21 20 19 17 16 16 16 16 15 15 14 14 14 14 12 12 11 10 10 9 8 8 7 7
74 84 74 69 90 94 78 69 72 72 64 56 50 47 44 38 36 35 36 33 30 28 26 24 23 21 21 21 20 19 18 18 17 16 14 13 13 13 13 12 12 11 11 10 10 10 9 9 8 7 7 6 6 6
68 73 72 69 80 95 89 77 66 70 72 71 61 56 59 62 62 55 40 41 42 39 36 33 31 30 29 27 26 24 21 21 18 16 15 14 12 12 11 11 11 11 11 10 10 9 8 8 7 6 6 5 5 6
79 70 60 63 75 96 100 83 62 66 70 73 74 65 58 64 64 60 60 57 49 48 44 40 37 35 34 30 28 27 23 19 17 15 14 13 12 11 11 10 10 9 9 9 8 8 8 7 6 6 6 5 5 4
64 53 49 56 81 98 98 91 87 70 67 75 70 67 70 68 62 59 63 62 58 58 56 50 43 38 35 31 27 24 21 19 17 15 14 13 12 11 10 10 9 9 8 8 7 7 6 6 6 6 5 5 4 3
46 44 36 50 70 85 95 96 91 88 76 65 65 67 69 67 64 62 70 69 64 61 56 53 49 45 39 36 32 27 23 19 15 14 12 11 11 11 10 9 8 8 7 7 6 6 6 5 5 5 5 4 3 3
41 32 28 42 60 74 82 91 96 100 91 74 64 64 70 69 64 62 66 67 64 55 49 43 40 39 37 35 31 28 24 19 15 12 10 10 10 10 10 9 9 8 8 7 7 6 6 6 5 4 4 3 3 3
24 22 26 36 49 63 76 83 86 94 96 86 83 81 84 80 69 71 74 74 65 59 54 49 43 40 39 35 30 26 20 18 14 12 11 10 10 10 10 9 8 8 7 6 6 6 6 5 4 4 3 3 3 3
29 29 29 30 34 45 66 74 80 83 84 87 87 87 84 81 80 76 70 76 72 66 56 49 46 42 37 33 30 26 20 15 13 11 10 10 10 9 9 8 8 7 6 6 6 5 5 4 4 3 3 3 3 3
34 33 33 36 38 37 45 58 71 80 78 78 78 77 71 73 79 70 63 62 59 54 49 43 38 31 26 24 22 19 15 12 11 10 10 10 9 9 8 7 6 6 5 5 5 5 4 4 3 3 3 3 3 3

GFSWCAN_250_rhum_228.txt.gz
RH
12 8 5 4 3 4 3 4 4 4 4 4 3 4 4 6 8 8 11 12 14 14 25 55 100 100 100 100 100 100 100 100 100 100 100 100 100 100 100 100 100 100 100 100 100 100 100 100 100 100 100 100 100 96
14 11 6 5 4 3 4 3 4 4 4 4 3 4 4 5 8 8 9 12 14 16 20 44 82 100 100 100 100 100 100 100 100 100 100 100 100 100 100 100 100 100 100 100 100 100 100 100 100 100 100 100 100 100
15 16 7 5 4 3 3 4 3 4 6 5 4 4 4 4 6 8 8 10 12 16 16 41 98 100 100 100 100 100 100 100 100 100 100 100 100 100 100 100 100 100 100 100 100 100 100 100 100 100 100 100 100 100
18 16 13 6 5 4 4 4 3 3 4 6 5 4 4 4 5 8 8 10 11 16 17 30 81 100 100 100 100 100 100 100 100 100 100 95 100 100 100 100 100 100 98 100 100 100 100 100 100 100 100 100 100 100
24 14 18 8 5 5 4 4 3 3 4 4 5 6 4 4 4 6 8 9 12 13 17 20 48 77 96 100 100 100 100 100 100 100 100 100 98 100 100 100 88 100 100 100 100 100 100 100 100 100 98 91 100 100
26 16 16 10 7 5 4 4 4 4 4 4 4 5 6 5 4 4 7 9 10 12 16 20 31 63 60 100 100 100 100 100 100 100 100 100 100 100 100 92 98 100 100 96 100 100 99 100 100 100 100 92 93 100
25 19 13 16 8 6 5 5 4 4 4 4 4 4 4 4 4 5 5 8 10 11 15 17 20 41 56 99 100 100 100 100 100 100 100 100 100 100 100 100 100 100 83 84 97 100 100 100 100 100 100 100 100 100
28 23 14 16 10 8 6 5 4 4 4 4 4 4 4 4 4 5 5 4 6 9 10 14 17 23 43 65 100 100 100 100 100 100 100 100 100 100 100 100 100 100 100 100 100 100 100 89 94 100 100 100 88 74
28 28 18 12 15 8 7 6 5 4 4 4 4 3 3 4 4 4 4 4 4 5 8 12 16 18 25 53 66 89 100 100 100 100 100 100 100 100 100 100 100 100 100 100 100 100 100 100 100 94 100 100 100 100
26 33 25 14 15 9 8 6 5 5 5 4 4 4 4 4 4 4 4 4 4 4 6 10 13 18 17 33 68 71 86 100 100 100 100 100 100 100 100 100 100 100 100 100 100 100 100 100 100 100 100 100 100 100
26 29 32 18 13 18 9 9 7 5 4 4 5 4 4 4 4 4 4 4 4 4 5 7 11 14 18 22 63 76 96 82 77 98 100 100 100 100 100 100 100 100 100 100 100 100 100 100 100 100 100 100 100 100
31 25 34 26 15 13 15 11 9 7 6 6 5 5 5 4 4 4 4 4 4 4 5 5 7 10 14 20 27 79 100 100 95 86 95 100 100 100 100 100 100 100 100 100 100 100 100 92 87 100 100 100 100 100
36 24 28 32 20 14 12 13 11 11 8 7 6 6 5 5 5 5 5 5 6 6 7 6 6 8 10 15 18 24 33 65 95 94 89 99 100 100 100 100 100 100 100 100 100 100 100 100 92 99 98 94 100 75
43 27 23 29 31 16 14 12 16 12 11 10 8 7 7 6 6 6 6 6 7 6 6 7 7 8 8 9 12 14 16 31 66 89 100 100 99 97 95 100 100 100 100 100 99 90 82 77 81 79 83 90 84 76
49 31 23 23 30 26 15 14 14 17 15 13 12 11 9 8 7 6 6 7 8 8 8 8 8 8 7 8 10 14 18 21 29 63 96 100 100 100 100 100 100 100 100 98 98 100 100 100 100 100 100 100 91 79
55 40 27 23 23 28 24 16 14 13 13 19 17 16 15 13 11 10 9 9 8 8 8 8 9 9 10 10 12 13 15 18 21 22 26 36 56 73 80 89 89 89 95 100 100 100 100 100 100 100 91 78 72 92
57 45 31 25 23 23 26 25 18 16 15 15 22 25 19 16 16 15 12 11 11 12 12 12 11 11 11 10 11 11 11 12 14 15 17 18 20 22 30 46 73 96 100 100 100 98 100 84 67 68 82 88 54 31
61 56 42 29 26 24 23 24 26 19 16 15 15 16 20 24 24 20 18 18 18 16 14 12 10 10 10 11 11 11 11 12 14 14 15 15 15 16 17 18 18 18 19 19 19 19 19 19 19 18 17 16 16 17
68 61 56 41 30 28 27 24 22 24 22 16 15 15 14 14 14 16 20 23 23 21 20 20 21 21 20 19 17 17 16 15 14 14 13 13 13 13 14 14 14 15 15 16 16 18 18 20 19 17 15 13 11 10
76 66 63 54 39 33 32 32 29 25 25 24 21 18 15 14 14 14 14 14 14 14 14 15 16 17 17 18 20 23 23 22 21 21 21 21 20 21 20 20 18 17 16 14 13 12 12 11 11 11 10 10 10 9
80 75 66 61 51 38 33 36 38 33 29 29 29 27 26 23 20 17 15 14 14 14 14 15 14 15 15 15 14 15 15 14 14 14 14 14 13 13 13 13 13 12 12 12 12 11 11 11 12 13 13 13 13 12
83 77 71 69 71 52 41 33 34 38 36 33 33 32 30 29 28 26 24 21 20 18 17 16 15 15 15 15 14 15 15 15 14 14 14 14 14 14 14 14 14 15 16 16 17 17 16 15 14 13 12 12 11 10
82 81 84 70 71 67 54 40 34 32 34 37 38 36 35 34 31 31 31 28 27 25 25 25 25 24 24 23 22 22 22 21 21 21 22 22 22 22 22 21 20 19 18 16 15 15 14 13 12 11 10 9 8 8
83 88 83 76 68 73 67 56 48 39 33 32 33 34 34 32 31 31 32 32 33 34 34 33 33 32 32 32 32 31 29 27 25 23 21 19 18 17 16 16 15 14 14 13 12 12 12 11 9 9 8 7 7 7
81 84 79 78 82 77 74 75 66 60 53 47 43 39 35 33 32 30 29 28 28 28 27 25 25 24 24 25 23 23 22 21 20 20 22 22 22 21 20 20 19 18 16 15 14 13 12 11 10 9 9 8 8 8
86 85 79 81 86 82 76 84 78 74 71 67 63 60 52 48 52 46 42 42 42 40 38 34 31 31 32 32 32 32 30 30 30 29 29 27 25 23 22 21 20 18 17 16 14 13 12 10 9 9 8 7 7 7
79 78 81 86 79 86 81 80 84 82 78 72 68 69 66 58 54 54 57 61 62 58 51 51 49 46 45 44 43 42 40 39 39 37 33 30 28 26 24 21 18 16 16 14 14 13 10 8 8 7 7 6 6 6
54 65 81 93 91 90 80 71 78 91 89 82 74 68 64 66 69 67 66 67 63 59 56 54 53 54 54 52 48 45 45 45 44 42 37 32 27 24 22 19 17 15 13 12 11 10 8 7 7 7 6 6 6 5
56 66 82 90 86 78 72 74 75 81 86 85 82 74 72 74 71 69 73 69 62 55 51 52 54 55 56 53 49 48 47 45 41 35 32 29 26 23 21 18 16 14 12 10 9 8 7 6 6 6 5 5 4 4
55 68 75 76 76 77 78 80 81 83 76 64 70 78 81 84 83 77 77 78 74 67 62 60 64 66 62 56 52 51 47 44 41 38 35 29 26 24 20 17 14 12 10 8 7 6 6 6 5 5 5 5 5 4
50 51 51 55 65 75 82 87 92 91 76 67 67 63 66 71 74 71 69 68 65 60 59 65 64 58 54 49 45 43 40 37 34 32 29 26 24 21 19 16 13 10 9 8 8 7 6 6 6 5 5 4 4 4
32 33 35 40 59 79 85 85 86 76 61 57 57 57 58 60 62 67 66 62 58 51 49 50 51 45 41 38 35 33 32 31 28 27 26 24 22 19 16 14 11 9 8 8 6 6 6 6 5 5 4 4 4 3
40 47 52 59 65 64 69 67 64 68 68 64 58 53 45 43 43 46 44 43 42 44 46 44 41 39 35 31 30 30 29 26 26 26 24 21 18 15 13 11 9 8 8 6 6 6 5 5 4 4 4 4 3 3

GFSWCAN_250_rhum_231.txt.gz
RH
30 22 14 10 5 5 4 3 4 4 5 6 6 6 5 4 4 4 6 6 6 6 8 14 16 46 85 100 100 100 100 100 100 100 100 100 100 100 100 100 100 100 100 100 92 100 100 100 100 100 100 100 100 100
31 24 16 11 5 5 4 4 4 5 5 6 8 7 6 4 4 4 6 7 7 7 10 14 19 35 86 99 100 100 100 100 100 100 100 100 100 100 100 100 100 100 100 100 100 100 100 100 100 100 100 100 100 99
33 26 20 12 8 5 5 4 4 4 6 6 7 7 6 5 4 4 6 7 7 8 9 13 18 28 100 100 100 100 100 100 100 100 100 100 100 100 100 100 100 100 100 100 100 100 100 100 100 100 100 100 100 100
35 26 23 12 12 6 5 4 4 4 5 7 8 8 6 5 4 4 6 8 8 8 9 12 16 20 34 82 100 100 100 100 100 100 100 100 100 99 98 100 100 100 100 100 100 100 100 100 100 100 100 100 100 97
37 28 26 12 13 8 6 5 4 4 5 6 7 8 7 6 5 4 6 8 9 9 10 12 14 17 21 31 49 100 100 100 100 100 100 100 100 100 93 100 100 100 100 100 100 100 100 100 100 100 100 100 100 100
40 32 28 15 13 11 6 5 5 5 5 6 7 9 9 8 6 5 6 9 10 10 11 12 16 19 21 23 28 44 67 100 100 100 100 100 100 100 98 100 100 100 100 100 100 100 100 100 100 100 100 100 100 100
42 32 30 18 16 12 9 5 5 6 5 5 5 6 8 8 6 6 6 7 9 10 10 10 14 18 22 24 27 39 79 100 100 100 100 100 100 100 91 98 100 100 100 100 100 100 100 100 100 100 100 100 100 100
44 36 29 20 14 16 10 8 5 5 5 5 5 5 5 7 7 6 5 5 6 9 10 9 11 15 19 24 25 35 65 100 100 100 100 100 100 100 100 100 100 100 100 100 100 100 100 100 100 100 98 98 100 100
49 36 31 22 14 19 13 9 6 5 5 5 5 5 4 5 6 8 6 5 5 8 9 10 11 15 18 21 23 28 37 61 100 100 100 100 100 100 100 100 100 100 100 100 100 100 100 96 99 91 100 100 100 100
50 34 30 28 14 17 17 10 8 6 5 5 5 5 5 5 5 6 6 6 6 5 8 12 12 11 11 16 17 19 23 28 43 100 100 100 100 100 98 100 100 100 100 100 100 100 96 72 75 85 89 87 64 62
47 40 26 28 18 14 19 12 9 7 5 5 5 5 5 5 5 4 4 4 5 5 5 8 12 12 11 13 18 19 19 22 27 58 100 100 100 100 100 100 100 100 100 100 100 100 100 100 100 100 100 100 100 100
46 43 26 26 20 15 21 14 12 8 6 5 5 5 5 4 4 4 5 5 5 6 7 6 8 11 12 13 14 19 23 23 25 32 64 99 100 100 100 100 100 100 100 100 100 100 100 100 100 90 99 100 100 100
49 44 29 26 23 16 16 22 13 10 7 6 5 5 5 6 6 5 5 5 6 6 6 6 7 8 11 12 13 15 18 22 23 26 35 78 100 100 100 100 100 100 100 100 100 100 100 100 100 100 100 100 100 100
50 48 32 26 25 19 16 24 18 12 10 7 6 6 6 6 6 6 5 5 5 5 6 6 6 6 7 10 13 14 14 17 21 23 25 28 60 97 100 100 100 100 100 100 100 100 100 100 100 100 100 100 100 100
52 50 35 26 24 22 16 18 28 17 15 11 8 7 7 7 7 7 6 6 5 5 5 6 6 7 6 6 8 11 14 16 20 24 24 25 26 31 59 86 98 98 100 100 100 100 100 100 100 100 100 98 94 91
56 52 39 28 23 23 18 16 19 26 19 15 13 10 8 8 7 7 7 6 6 7 6 6 6 6 6 8 9 8 9 12 16 18 20 24 26 26 26 28 45 66 76 91 100 100 100 100 93 88 90 96 93 81
59 62 44 29 24 24 23 17 16 17 25 20 17 14 11 9 8 8 8 8 7 7 7 8 8 8 8 9 10 11 13 14 15 17 19 22 25 27 27 27 28 30 42 59 67 71 76 71 64 70 71 67 72 80
62 63 54 35 27 24 25 24 18 16 17 23 30 19 16 17 14 10 9 8 8 8 8 9 8 8 8 8 7 8 8 8 8 9 10 12 15 18 21 23 25 29 34 42 49 49 49 48 55 68 76 76 80 77
63 63 62 43 32 28 23 24 26 20 16 16 17 22 26 24 21 20 18 15 12 10 10 10 11 11 11 10 9 9 9 10 10 10 11 11 12 13 15 16 18 19 21 22 22 22 22 22 22 21 19 18 16 15
71 64 63 50 35 30 27 25 25 27 25 18 16 15 16 19 23 27 28 27 24 22 20 18 16 14 12 11 12 11 11 11 11 12 12 12 12 13 13 14 14 13 14 14 14 14 14 14 14 13 14 16 18 19
74 66 64 56 44 34 27 24 24 26 29 29 24 19 16 15 15 15 16 19 22 25 25 26 26 26 26 23 22 21 20 18 18 19 19 18 16 16 16 16 17 17 17 18 20 22 22 22 19 16 14 12 12 11
77 72 67 61 58 40 32 27 26 23 24 27 29 30 27 24 20 18 16 15 15 14 15 15 15 15 16 17 18 18 19 19 20 20 20 20 19 18 18 17 16 16 15 14 14 13 13 12 12 12 14 15 14 13
78 78 76 72 67 53 38 36 33 30 27 26 26 26 28 29 29 29 26 23 20 19 18 17 16 16 15 15 15 15 15 15 15 14 14 14 14 15 15 15 15 15 17 19 19 19 18 17 15 14 12 11 11 10
81 89 83 80 77 68 56 44 38 36 34 31 29 28 28 28 27 28 28 27 27 28 27 25 25 24 25 25 24 23 23 23 23 22 22 22 23 23 22 22 22 20 19 18 16 16 14 14 12 11 11 11 11 11
84 90 86 85 84 81 71 58 46 38 35 33 31 31 30 30 30 30 30 30 30 29 30 30 30 30 27 26 26 27 26 26 26 25 24 24 24 23 23 23 23 22 22 21 20 18 17 16 14 12 12 11 11 10
86 90 86 90 89 88 87 81 66 55 47 38 36 36 34 32 32 31 32 32 32 32 31 31 30 29 29 28 30 30 30 32 34 34 34 34 34 33 32 30 28 27 26 23 20 17 15 14 13 12 10 10 9 8
84 87 91 98 87 86 93 89 86 76 69 65 59 56 54 50 45 46 44 45 43 38 40 42 42 41 42 43 44 44 43 43 44 43 43 42 41 40 39 34 29 25 22 20 17 14 12 11 11 9 9 8 6 6
77 89 96 97 95 90 83 84 91 92 82 74 73 70 62 66 67 68 71 66 55 48 47 51 56 58 57 54 51 50 51 52 50 46 44 41 40 40 38 32 26 22 19 16 13 12 12 10 9 8 7 6 6 6
85 98 100 98 97 94 85 79 86 89 87 82 77 77 81 84 84 82 79 72 62 58 55 59 63 62 59 56 56 54 53 54 53 48 46 44 41 34 29 26 22 19 15 13 12 11 10 9 8 6 6 6 6 5
76 84 87 88 89 92 91 88 83 84 88 82 86 89 90 92 88 85 82 72 62 56 54 54 56 57 59 58 55 53 50 47 43 40 36 34 30 28 25 21 17 13 12 11 11 10 9 8 6 6 6 6 6 5
67 76 80 84 85 87 89 94 92 81 75 71 77 84 91 94 94 88 83 78 74 70 67 64 62 60 59 57 54 52 49 44 41 40 38 34 30 25 21 17 14 12 11 11 9 8 7 6 5 5 5 5 5 4
72 77 83 81 79 84 89 89 86 76 67 60 60 69 78 83 84 87 82 77 74 74 72 68 61 54 49 48 48 46 43 42 41 35 31 27 23 21 17 14 13 12 11 9 8 7 6 6 6 6 5 5 4 4
62 63 65 68 70 71 72 71 70 64 54 54 58 61 62 65 72 85 80 72 64 56 47 40 37 34 34 33 32 32 33 32 28 25 23 21 20 16 14 14 12 10 9 8 7 7 6 6 6 5 5 5 4 4

GFSWCAN_250_rhum_237.txt.gz
RH
80 76 59 56 65 61 53 36 26 19 11 7 5 4 5 5 5 4 4 4 3 3 4 4 6 9 9 5 5 8 6 9 16 24 32 36 23 44 98 100 100 100 100 100 100 100 100 100 90 100 100 100 100 100
81 72 66 67 70 62 44 35 26 16 10 6 5 4 6 8 6 5 4 4 4 4 4 5 6 8 8 7 5 5 14 33 44 37 27 26 27 83 82 91 100 100 100 100 100 100 100 100 100 100 100 100 100 100
84 80 73 75 72 63 39 31 26 17 10 6 5 6 7 9 9 7 5 5 5 5 5 6 6 6 8 7 5 5 13 45 32 57 90 47 47 87 100 94 100 100 100 100 100 100 100 100 100 100 100 100 100 100
91 84 77 78 71 58 39 30 24 19 10 6 6 7 8 11 11 12 12 8 7 6 6 7 8 7 7 6 5 5 9 27 73 62 67 40 35 85 81 77 96 100 100 100 90 100 100 100 100 100 94 89 100 100
92 82 78 78 70 52 40 32 23 21 11 7 6 8 14 14 16 14 16 16 16 13 11 11 9 8 8 6 5 6 7 10 23 30 35 30 43 64 69 90 97 91 100 100 100 100 100 100 100 100 100 100 100 100
86 84 80 78 68 52 43 34 26 22 12 7 6 7 13 20 26 27 23 20 19 18 18 14 13 10 7 5 5 6 8 14 30 25 41 36 72 35 35 72 96 100 88 96 84 100 100 100 100 96 99 74 87 100
85 84 80 79 67 56 44 35 26 23 13 8 6 7 9 14 25 31 24 19 13 10 10 10 11 11 9 8 8 7 7 9 16 27 38 37 41 47 40 50 88 98 98 100 100 100 100 100 97 100 100 99 100 100
81 86 81 75 68 58 46 34 25 23 14 9 7 7 7 9 14 19 25 20 17 12 10 9 7 7 7 7 7 6 7 7 10 22 39 49 64 75 38 40 86 98 82 93 100 100 100 100 100 100 100 100 100 100
64 76 76 68 70 61 51 32 24 23 15 10 8 8 7 7 10 14 23 20 12 12 13 12 10 8 6 6 6 6 6 7 7 9 14 28 37 32 40 60 66 88 97 85 97 100 98 95 100 100 98 82 100 100
52 67 69 64 73 64 56 33 24 21 16 11 8 8 9 8 8 10 14 14 12 29 20 14 9 11 10 9 8 7 6 6 8 9 14 18 22 16 20 45 50 84 99 96 76 90 86 89 100 100 100 100 100 100
47 57 62 64 72 64 56 30 23 19 16 12 9 8 7 8 7 7 9 15 24 37 26 14 11 8 10 9 9 9 8 7 8 9 9 16 18 36 53 51 47 41 68 81 75 76 72 72 99 100 100 100 100 100
41 49 53 65 69 62 51 31 25 16 14 12 9 8 8 7 7 6 7 11 21 31 26 11 9 8 9 9 9 9 9 7 7 8 9 12 19 41 40 39 40 41 35 34 48 67 72 86 99 100 100 100 100 100
38 44 49 62 63 58 45 32 27 19 16 11 9 8 7 7 7 8 9 9 13 19 16 12 10 8 8 9 10 10 10 9 8 8 8 11 15 22 29 32 38 51 49 44 55 48 70 82 86 87 85 100 92 99
35 41 49 54 55 51 38 31 26 21 18 13 9 7 6 8 7 6 6 7 7 7 12 13 8 7 8 6 7 10 11 10 10 9 9 12 16 22 26 29 35 45 49 46 45 49 57 85 94 100 99 100 100 100
36 45 46 52 53 44 33 30 24 22 17 14 11 9 7 7 7 6 6 6 6 6 7 8 8 7 7 8 7 8 11 11 11 11 11 12 15 18 23 32 36 40 48 45 38 37 41 86 100 99 94 95 90 83
42 46 47 54 50 39 31 29 21 22 18 14 11 8 8 8 7 7 6 7 7 6 6 6 7 7 7 9 8 7 8 10 12 13 14 13 13 16 21 28 39 54 62 62 58 63 78 72 62 73 79 82 87 94
44 46 50 52 46 33 30 31 21 19 18 15 15 11 9 8 8 7 6 6 6 7 7 7 7 6 6 8 8 8 7 8 11 15 16 16 16 16 15 19 26 35 47 57 58 55 51 51 55 55 66 70 82 87
45 52 52 47 41 30 28 31 21 19 20 18 16 13 11 11 9 8 7 7 6 6 6 6 6 6 7 7 8 9 9 9 10 13 16 18 19 19 19 18 18 18 21 27 34 41 47 49 50 52 46 50 60 69
48 55 49 44 36 27 26 32 24 19 22 24 19 18 15 11 10 10 9 8 7 6 6 7 7 7 8 8 8 8 9 9 9 10 11 13 15 17 18 18 19 20 21 22 23 25 28 30 31 32 32 31 31 29
55 54 49 42 32 27 27 32 28 18 20 26 25 19 17 16 12 11 10 10 9 8 8 8 8 8 8 9 9 9 9 8 8 8 8 9 10 11 13 15 16 17 18 18 19 19 20 19 19 18 18 18 19 21
54 53 49 43 32 28 27 31 29 23 18 18 21 23 21 18 18 16 14 11 10 10 10 10 10 10 10 10 9 9 9 10 10 10 10 9 9 9 9 9 10 10 10 11 13 14 16 17 17 16 15 14 12 11
55 53 48 45 34 30 29 29 31 30 22 18 17 19 22 22 22 22 20 18 16 15 14 13 12 12 12 13 13 12 12 12 12 11 11 10 10 11 11 11 11 11 11 11 11 11 11 10 11 11 11 11 11 12
60 56 50 47 35 30 30 29 30 33 33 27 20 18 17 17 19 23 26 28 28 27 25 22 19 18 18 17 16 15 15 15 16 15 15 15 15 15 15 15 15 15 14 13 14 14 16 18 20 19 18 18 16 15
58 56 48 48 37 32 32 34 36 34 34 36 34 26 21 19 18 18 18 18 20 22 25 28 29 30 29 30 30 26 25 25 25 25 25 24 22 22 21 20 20 20 20 19 18 17 16 16 16 15 16 17 17 17
68 61 55 52 43 33 32 34 34 35 36 37 38 38 35 32 27 24 23 21 20 20 20 20 20 20 20 20 21 21 20 21 21 21 20 20 21 21 21 20 21 21 22 23 25 25 24 21 19 17 17 16 16 15
69 62 60 61 49 35 33 34 36 36 36 35 36 37 39 39 37 34 33 32 31 30 30 29 28 28 28 28 28 29 30 32 34 36 37 38 37 36 34 32 30 27 26 25 23 22 22 22 22 22 20 19 18 16
69 66 57 58 57 50 39 34 34 33 35 36 37 37 36 37 38 40 39 39 42 44 44 44 43 43 42 41 38 36 36 35 35 36 37 38 38 38 37 36 35 34 34 31 29 27 26 25 23 21 19 16 13 12
70 68 66 70 69 65 57 46 36 33 34 35 35 34 34 32 32 32 33 33 36 37 38 40 43 46 48 48 48 48 49 49 50 50 50 48 45 42 41 39 37 36 34 31 29 28 25 21 18 15 12 11 11 10
76 76 76 80 76 69 61 56 52 51 52 52 52 51 50 51 47 49 52 58 62 64 62 60 60 61 62 63 62 61 60 59 57 53 49 48 48 46 41 38 36 32 28 24 20 18 16 14 13 12 11 10 9 9
80 77 78 81 82 76 73 71 71 74 78 74 73 73 69 65 65 67 70 72 73 71 67 66 69 72 74 72 68 64 61 60 58 56 52 46 42 36 31 27 24 22 20 18 17 15 14 13 12 10 10 9 8 7
90 88 81 82 83 81 78 76 80 87 90 90 90 86 86 87 84 79 78 77 76 75 77 80 79 76 72 68 64 61 56 53 49 41 34 30 28 25 22 21 19 18 17 16 16 15 13 12 11 10 9 8 7 6
98 91 84 78 76 80 83 76 72 76 79 81 83 88 88 86 82 81 77 78 79 77 75 72 70 68 65 62 59 56 50 40 30 30 31 29 26 24 21 18 17 16 16 15 14 13 12 11 9 8 8 7 6 5
94 92 86 77 75 76 78 79 77 78 83 86 89 94 96 95 90 87 73 74 78 78 77 76 70 64 60 59 56 46 36 32 33 34 35 33 29 24 21 18 16 14 14 14 12 11 10 8 8 7 6 5 4 4

GFSWCAN_250_rhum_240.txt.gz
RH
66 62 59 58 60 66 71 73 59 50 52 47 38 29 18 12 7 6 5 5 4 5 6 5 4 4 4 4 5 9 7 5 6 4 4 6 6 9 10 14 18 19 24 18 25 55 69 100 100 100 100 100 100 100
58 56 58 69 73 71 72 64 55 60 57 45 35 22 14 9 6 6 6 6 5 5 7 5 5 4 4 4 5 5 6 7 8 7 6 8 6 8 11 12 16 21 21 20 23 57 100 100 100 100 100 100 100 100
52 52 68 75 76 74 73 64 66 65 56 44 27 18 12 6 6 7 8 9 7 6 6 6 5 4 4 4 5 6 6 8 8 7 8 7 6 8 10 13 19 26 33 27 26 60 100 100 100 100 100 100 100 100
44 64 77 79 78 81 74 69 69 68 52 38 22 16 9 6 7 9 8 8 7 6 6 6 7 6 5 5 5 6 5 7 6 6 8 6 6 8 10 14 17 25 33 36 28 44 97 100 100 100 100 100 100 98
45 70 78 83 86 85 79 70 65 71 52 32 20 14 9 8 8 10 14 11 10 10 9 8 8 6 5 5 5 5 6 7 8 8 8 6 7 8 10 16 21 24 32 33 31 53 84 100 95 100 100 100 100 100
51 71 79 85 87 86 77 73 63 61 52 31 21 15 10 8 8 8 11 14 18 17 13 11 9 8 7 7 6 6 6 6 7 10 10 6 8 8 10 15 24 25 28 38 42 98 100 100 100 100 100 100 100 100
54 70 79 86 86 85 82 75 62 58 50 32 23 17 11 9 8 11 17 20 22 22 21 19 15 14 14 12 10 10 9 12 14 16 11 9 8 8 9 15 28 32 33 38 46 100 100 100 100 100 100 100 100 100
49 69 81 86 88 84 84 74 58 58 46 36 24 19 13 9 9 11 19 22 29 29 29 35 30 26 25 21 21 20 23 25 24 25 13 8 8 6 8 22 28 32 31 33 51 100 100 100 100 99 100 100 100 100
51 64 78 84 86 84 82 72 55 56 43 38 26 19 12 10 9 10 19 22 25 36 31 23 22 24 29 28 27 24 21 19 11 13 13 10 11 6 14 24 29 28 32 29 82 100 100 100 100 100 100 100 100 100
48 58 75 80 83 79 76 67 53 51 44 41 30 21 14 11 10 10 14 16 19 46 50 42 26 19 18 19 20 19 16 14 11 8 10 8 9 12 21 22 28 38 40 45 76 100 100 100 100 100 100 100 100 100
40 56 72 73 77 70 70 65 55 48 38 38 33 24 15 11 8 8 9 11 13 32 36 29 21 16 14 12 9 9 8 8 8 7 8 7 7 12 24 24 24 46 61 52 60 97 84 94 100 100 100 100 100 100
30 46 62 68 75 62 64 61 54 50 36 29 29 22 16 11 8 8 9 11 15 25 29 21 20 17 14 10 8 7 6 6 6 6 6 7 8 14 30 29 24 33 41 54 49 55 83 79 75 81 99 100 97 93
23 33 47 63 64 63 59 55 52 48 37 26 25 19 15 11 11 8 8 11 12 16 19 16 15 15 13 11 8 7 7 8 7 8 7 7 7 8 16 23 23 19 27 31 35 54 52 71 72 80 85 98 100 84
19 25 38 47 50 58 54 57 52 37 32 22 22 16 13 12 10 9 8 8 8 9 11 14 14 14 10 11 8 7 8 9 9 9 9 9 9 8 7 7 12 13 16 27 29 32 49 71 68 50 47 54 67 82
16 22 30 35 46 52 52 55 50 32 26 17 18 16 12 10 9 9 8 8 8 7 6 8 11 10 10 12 10 9 9 10 11 11 10 9 10 9 9 9 13 31 17 28 22 23 40 74 94 94 93 62 42 51
16 22 27 35 42 48 54 53 42 31 22 19 21 15 11 10 8 8 9 8 8 8 8 8 8 10 12 14 13 10 9 9 10 11 11 10 9 10 12 13 12 13 16 16 21 26 19 26 44 82 81 80 75 51
16 21 26 36 46 49 53 50 35 29 20 25 24 17 12 9 8 8 8 8 8 7 6 7 8 7 9 12 14 13 8 8 11 13 12 11 11 11 12 12 13 11 12 12 11 19 27 27 25 32 55 76 57 52
16 20 28 42 46 50 52 40 30 27 18 29 22 15 11 10 10 10 10 9 9 9 7 6 6 7 7 8 12 13 12 11 12 14 15 14 13 13 13 12 12 11 14 16 15 15 19 25 33 45 41 34 40 47
19 25 36 43 49 49 44 34 30 24 18 29 22 16 12 10 10 9 9 9 9 9 8 7 7 7 7 8 9 11 13 14 14 13 13 13 13 14 14 13 14 13 13 13 14 17 20 33 51 52 52 48 35 31
22 31 37 42 52 51 36 30 28 20 20 31 23 18 16 12 11 11 10 10 9 8 8 8 8 8 8 8 8 9 10 12 14 14 12 11 12 14 14 14 15 15 15 14 14 14 15 17 20 22 23 25 26 26
33 38 38 47 52 43 31 27 26 21 18 24 26 22 20 18 14 12 10 10 10 10 10 9 9 10 9 8 7 8 8 9 11 12 14 14 12 12 12 14 15 15 16 16 17 17 17 17 18 18 19 19 20 20
36 39 47 52 47 35 28 26 26 22 17 19 25 31 30 22 20 18 13 12 11 10 11 11 11 11 12 12 11 11 10 9 9 10 10 11 12 13 14 13 13 14 14 15 16 18 19 20 20 20 20 19 19 19
40 46 56 52 41 30 29 28 30 26 20 19 20 23 29 30 29 24 21 19 16 14 12 12 12 12 10 11 12 13 14 14 13 13 12 13 12 11 10 10 10 10 10 10 10 10 11 11 11 10 10 10 10 10
49 58 54 49 37 29 29 30 31 31 27 22 19 18 18 20 25 28 29 29 27 23 21 18 16 16 14 15 15 15 15 15 14 13 13 13 13 13 13 14 14 14 14 14 13 13 13 14 14 15 16 16 16 14
56 62 56 50 34 28 26 29 29 26 31 29 25 21 20 18 18 18 19 22 25 26 28 28 28 30 31 32 32 32 31 29 28 29 28 27 25 24 23 21 20 18 17 16 16 15 14 15 16 17 16 16 15 14
66 58 59 50 34 28 29 31 30 32 33 34 34 31 29 26 23 21 20 19 19 19 19 19 19 19 19 19 19 19 20 20 20 19 19 20 20 22 24 25 25 24 23 22 21 21 21 22 22 22 22 21 20 18
68 56 52 46 34 30 31 32 32 32 32 33 37 39 39 41 39 36 34 33 29 27 26 26 26 27 28 29 31 31 32 32 33 32 31 31 30 30 29 29 29 31 31 32 32 32 32 31 29 26 23 20 18 16
64 61 58 48 40 35 34 34 36 36 35 34 34 35 38 40 42 42 40 39 39 39 40 39 38 37 36 34 33 35 39 43 44 43 43 44 44 44 44 42 41 41 40 38 36 34 30 26 21 18 16 15 13 12
64 64 59 54 47 42 36 36 36 35 33 32 33 34 35 37 36 37 38 39 39 38 37 39 46 50 50 51 54 55 56 58 60 58 55 52 50 49 48 46 44 38 32 26 23 20 19 18 17 16 14 14 14 13
82 73 65 59 57 56 52 44 39 39 39 38 40 41 44 42 42 45 47 52 58 61 64 65 65 65 67 68 68 64 60 57 56 58 59 59 56 47 38 33 30 27 25 22 21 19 18 16 14 14 13 12 11 9
81 79 79 78 70 65 68 69 64 61 60 59 57 58 61 64 66 66 66 68 71 74 76 75 74 72 70 70 71 71 71 66 63 58 54 43 35 35 36 35 32 28 24 20 17 15 14 13 12 11 10 9 8 7
91 85 81 74 74 82 86 83 83 82 81 80 79 78 75 74 75 80 81 83 86 88 86 85 85 81 75 73 70 67 63 58 55 50 36 33 35 36 35 32 29 24 20 17 15 13 12 11 10 10 9 8 8 7
100 100 95 88 90 92 90 91 92 92 91 89 86 87 87 87 84 88 83 86 87 86 81 74 68 64 62 60 59 55 51 46 41 34 32 35 35 33 31 29 26 22 19 16 14 12 11 10 10 9 9 8 7 6

GFSWCAN_250_rhum_243.txt.gz
RH
74 78 83 84 84 88 78 81 84 79 73 58 58 63 61 55 45 42 33 31 19 10 10 8 8 8 13 9 5 7 4 4 4 4 5 5 5 6 6 9 13 14 17 20 24 18 9 8 13 18 20 34 52 67
54 60 62 64 75 72 74 80 77 70 57 60 66 66 57 53 56 36 34 25 16 9 6 6 7 7 8 8 6 5 4 3 4 4 5 5 4 6 5 7 15 10 11 17 22 18 15 16 12 24 23 26 32 59
44 50 55 61 67 70 77 68 62 62 70 72 71 63 62 59 46 37 26 20 10 6 6 6 8 9 7 7 6 5 4 4 4 5 5 4 4 5 5 10 11 10 12 13 17 13 12 15 14 18 21 26 30 54
28 33 42 52 61 66 65 60 61 80 78 79 68 70 64 55 39 27 19 12 8 8 8 10 12 10 7 6 6 5 5 4 4 5 5 4 4 5 9 15 10 11 11 12 14 14 13 16 14 18 21 25 33 93
22 22 26 34 42 53 62 62 82 86 84 81 70 74 61 45 33 22 13 8 9 10 14 13 10 8 7 7 6 6 6 5 5 5 5 5 5 6 8 8 8 14 12 13 12 14 14 19 20 21 22 24 40 99
22 22 23 28 42 56 58 83 85 91 88 77 71 70 59 38 26 17 11 10 13 16 15 14 11 8 7 8 8 7 6 5 5 5 5 5 6 6 9 9 40 13 11 11 14 15 19 20 18 23 23 25 44 96
22 22 26 32 42 51 76 86 89 92 89 78 74 67 57 32 22 17 13 12 20 28 22 20 17 12 9 8 8 7 6 6 5 5 5 6 7 8 11 17 49 19 14 10 16 20 22 21 19 24 22 26 70 98
22 22 27 34 43 62 84 86 88 92 89 87 76 72 53 30 22 16 12 9 11 12 19 22 26 23 21 14 10 9 8 6 5 6 7 8 8 8 16 60 29 16 16 13 16 22 24 25 21 23 22 62 100 100
22 22 25 35 46 76 83 86 87 90 89 86 78 74 55 34 24 17 12 11 14 19 27 35 31 24 25 22 19 14 10 9 8 8 8 12 12 18 44 30 17 13 14 16 15 28 29 22 27 26 27 75 100 100
22 22 26 34 54 78 80 87 84 87 90 84 77 78 58 35 27 18 11 12 13 16 32 40 40 32 25 24 20 18 16 12 11 10 11 16 18 24 29 21 18 13 13 17 21 45 35 25 28 31 32 41 100 100
22 22 25 38 61 76 79 86 80 82 85 84 79 77 54 37 25 19 15 13 14 17 26 32 37 42 36 32 20 16 12 12 15 14 14 18 24 23 26 26 19 16 13 19 27 44 47 48 37 40 40 29 51 100
21 22 26 36 59 73 77 80 75 73 81 78 78 71 55 36 29 20 16 16 14 18 22 25 31 36 40 38 37 19 13 11 10 10 15 23 20 19 24 24 20 16 14 11 19 43 51 49 51 61 62 44 34 34
20 21 25 33 60 69 72 74 68 72 66 64 78 66 58 36 30 21 16 14 14 21 19 18 22 24 32 30 28 23 17 11 10 8 10 14 15 17 20 21 16 13 16 17 24 35 44 46 47 71 83 84 58 44
19 20 25 35 52 60 68 70 63 69 59 58 60 62 48 39 28 19 14 13 12 12 14 15 15 15 17 22 22 19 17 12 11 11 9 8 9 12 22 24 13 13 13 21 37 32 40 48 46 67 79 76 99 100
19 21 23 30 42 57 63 64 64 62 52 59 56 47 37 37 24 17 13 13 13 12 11 10 10 10 11 15 16 14 15 13 12 12 11 9 9 10 11 13 12 10 14 23 24 33 48 52 58 72 80 69 91 100
18 20 20 23 31 44 53 58 59 50 57 59 58 40 33 28 22 15 12 11 12 11 10 10 9 8 9 13 15 16 20 14 12 12 12 11 10 11 8 9 13 12 10 11 18 26 36 51 49 51 62 67 88 93
18 19 19 22 27 35 42 50 48 52 64 54 45 35 34 23 16 12 10 10 10 11 9 8 8 8 10 13 18 22 20 17 17 16 13 13 12 12 11 8 11 13 12 11 9 12 20 36 47 60 70 64 63 64
16 16 17 20 24 29 36 40 49 58 51 44 32 30 23 18 13 10 10 10 10 10 9 9 8 7 7 10 16 18 19 18 16 16 14 14 15 13 13 14 10 10 11 14 14 11 10 17 27 42 62 68 75 72
20 20 21 25 28 31 35 43 52 49 41 37 29 30 24 18 13 9 9 9 8 8 9 8 8 8 8 8 11 14 18 17 15 13 13 14 14 15 15 15 16 15 14 14 14 13 13 14 13 15 24 33 36 36
19 20 21 24 30 35 46 51 48 37 38 28 32 29 23 16 12 11 9 9 9 9 9 9 9 10 8 8 8 11 14 15 14 12 11 11 14 15 15 14 14 14 14 14 15 15 14 13 13 13 14 16 18 24
18 19 22 28 32 44 50 48 35 34 31 24 32 27 22 16 14 13 11 10 10 10 10 10 10 9 7 7 8 8 11 13 14 14 12 12 11 14 16 17 16 16 16 15 14 15 14 13 13 13 13 13 14 14
20 22 27 35 44 47 48 36 30 32 22 24 35 29 23 20 16 14 13 13 11 10 10 10 10 9 9 10 10 10 11 12 14 16 15 15 14 13 13 14 16 17 17 17 17 17 17 17 17 16 16 16 16 16
21 28 39 50 51 45 37 30 33 30 20 21 33 41 29 23 21 18 18 14 11 10 11 11 10 9 10 11 13 14 16 14 14 14 16 16 18 18 17 17 16 16 16 16 16 15 15 16 16 16 16 15 14 14
32 44 54 53 51 42 31 30 32 26 19 19 26 37 41 35 25 25 23 17 14 13 11 10 12 13 12 10 10 11 14 13 13 13 14 13 13 12 13 14 14 15 15 15 15 15 15 14 14 14 13 13 12 12
41 51 55 52 46 34 30 30 30 27 21 18 18 21 27 34 37 36 33 26 21 20 17 15 15 17 18 16 15 17 18 19 19 17 17 18 19 18 18 19 21 23 25 26 27 26 25 22 21 20 20 19 18 17
57 56 56 48 41 33 28 27 29 30 28 21 19 18 19 21 26 33 38 38 35 34 35 34 34 33 32 33 34 37 39 39 39 39 36 34 30 29 28 27 27 26 25 24 24 24 23 23 22 21 20 19 18 17
59 51 44 40 34 33 34 35 36 36 36 33 26 24 22 21 20 20 20 20 20 21 21 21 21 22 23 24 24 24 24 26 27 29 30 32 33 33 34 33 31 32 32 32 31 30 30 29 28 26 25 23 20 16
62 54 49 37 31 33 34 34 35 36 38 36 33 35 35 33 30 27 26 24 24 23 24 25 27 29 31 34 37 38 37 36 36 37 40 43 45 47 46 45 43 42 40 39 37 33 29 24 21 18 16 14 13 12
61 58 51 39 32 31 31 34 35 35 35 35 34 35 35 35 36 37 39 40 40 40 39 40 39 38 39 41 42 44 46 50 52 54 55 56 56 54 51 50 46 40 34 31 29 26 24 21 19 16 15 13 12 10
58 53 47 38 35 35 34 34 34 35 35 33 32 34 33 33 34 34 35 36 37 39 43 48 52 53 55 57 62 65 65 63 61 61 62 62 59 54 52 44 36 33 33 32 29 26 24 21 19 16 13 11 10 10
63 67 61 51 42 35 35 36 36 36 35 35 34 34 34 37 40 47 51 56 60 63 65 67 67 68 70 72 72 72 72 68 67 66 64 62 59 54 41 34 34 35 34 31 28 26 22 19 16 13 11 10 9 9
79 75 67 61 55 53 48 44 44 45 49 52 55 58 60 63 66 71 75 78 81 84 84 83 84 84 82 81 79 77 75 72 69 65 61 57 52 42 36 35 37 36 33 29 25 22 20 17 13 11 10 10 10 9
78 74 81 82 74 70 70 70 70 69 68 70 73 76 79 82 85 90 88 90 91 91 89 87 84 81 79 77 75 73 70 66 61 59 54 49 42 37 36 37 37 33 28 25 22 21 19 15 12 11 11 10 10 9

GFSWCAN_250_rhum_246.txt.gz
RH
58 67 66 75 82 88 95 98 100 100 100 97 92 87 84 84 81 69 71 62 42 43 75 51 52 48 48 27 20 22 12 9 8 5 5 6 5 5 4 5 6 7 10 12 13 9 5 14 16 16 17 19 15 15
43 43 56 63 73 85 94 96 93 91 89 93 89 86 86 80 75 65 64 54 52 36 61 55 52 40 26 18 12 10 7 6 5 4 4 5 4 5 4 4 5 5 7 9 11 7 10 14 16 20 20 22 18 14
32 33 36 45 56 68 67 74 77 86 89 88 82 78 75 77 73 59 62 68 51 31 30 31 32 20 15 13 8 6 6 7 6 6 5 4 4 7 5 4 4 5 9 8 7 8 11 12 14 20 22 19 21 19
27 30 29 38 52 65 65 72 82 86 82 73 75 73 77 73 68 72 74 68 54 42 23 28 20 15 10 8 10 9 9 11 14 9 7 5 5 6 6 5 4 6 7 6 6 13 11 13 15 18 24 27 23 16
23 24 28 33 39 47 57 68 70 72 74 76 79 80 73 73 81 82 82 76 58 38 27 20 14 9 8 10 9 12 14 11 9 8 7 6 7 6 4 4 5 7 7 6 10 17 8 10 12 16 22 27 22 21
19 21 24 26 34 40 51 60 63 77 79 82 83 84 84 87 86 86 89 83 57 38 26 17 10 9 10 14 12 12 10 8 8 7 8 6 6 4 4 4 8 7 8 8 15 14 7 13 11 12 15 25 22 20
18 20 24 28 30 30 32 32 40 55 66 73 86 91 94 90 88 92 91 76 47 30 21 14 11 12 16 19 15 12 10 9 8 7 6 6 5 3 5 6 15 9 10 14 14 11 10 17 12 11 14 21 20 24
19 21 23 24 26 28 26 27 36 46 59 83 92 98 94 91 91 93 80 60 38 28 17 12 14 22 22 21 15 12 10 10 9 8 6 6 4 4 9 19 14 10 10 7 11 12 14 13 13 14 17 59 50 32
22 23 25 26 27 26 26 31 36 55 80 90 98 94 94 92 99 90 65 41 30 24 14 12 18 32 28 23 20 17 13 10 9 8 6 7 6 9 14 8 7 7 8 11 14 18 17 14 16 14 23 29 31 23
24 25 25 25 25 27 29 35 49 74 86 100 95 97 97 97 90 73 58 38 28 20 14 12 14 20 28 32 29 30 26 23 21 14 10 9 7 9 9 8 7 9 12 12 17 22 21 18 15 18 28 27 26 27
24 25 25 25 26 28 32 39 56 79 95 96 99 99 96 88 79 71 55 37 36 24 17 16 16 19 29 37 38 30 23 25 27 20 13 10 8 10 10 11 13 15 16 15 24 20 17 16 17 24 41 37 42 38
23 25 25 26 28 29 33 44 68 87 95 96 98 95 88 83 75 67 57 39 34 27 24 18 15 15 17 27 37 32 26 24 19 28 23 14 12 14 13 19 30 26 26 23 18 20 17 20 25 37 62 63 27 39
24 25 25 28 30 31 39 52 73 87 94 96 95 88 89 79 66 76 57 35 30 23 19 14 15 14 15 20 35 36 32 22 19 18 38 30 20 25 31 32 33 37 35 36 25 18 17 19 33 69 42 34 55 42
24 25 27 30 31 32 41 57 75 83 91 94 88 86 86 81 82 75 46 35 32 20 18 17 14 15 13 11 17 27 30 29 24 15 20 30 31 30 43 49 49 47 30 20 21 19 21 29 27 47 65 81 65 75
24 26 27 28 28 29 43 60 72 74 81 82 89 90 90 94 78 58 41 36 27 20 16 17 15 15 12 10 11 16 26 30 24 22 24 16 15 22 32 42 36 38 40 36 35 28 24 31 52 52 83 81 76 88
22 23 23 25 26 29 40 54 65 66 72 72 78 93 94 88 74 49 39 33 24 18 16 17 15 15 11 10 11 14 23 30 31 28 21 14 11 11 13 17 28 33 30 24 38 44 35 42 38 58 57 49 54 65
18 20 20 22 24 26 35 46 52 57 60 75 86 89 84 75 59 42 38 27 20 16 14 14 12 10 11 9 11 14 20 29 33 28 18 12 10 11 11 12 14 18 18 15 15 29 27 36 40 26 34 69 84 75
15 20 22 26 26 25 29 40 54 54 69 86 73 84 72 54 41 36 28 20 16 14 12 12 12 10 9 9 9 13 16 22 26 20 15 14 12 13 14 13 13 14 15 15 12 12 15 23 26 22 30 36 71 80
22 24 25 24 23 23 27 35 46 61 70 71 74 65 57 41 38 30 22 16 12 11 11 11 10 9 9 8 8 9 15 18 20 17 16 14 12 13 15 14 14 13 13 12 12 15 16 16 23 34 37 47 48 52
20 21 21 22 21 20 27 42 53 58 61 73 64 56 44 41 32 22 16 13 11 11 11 11 10 10 9 9 9 10 13 17 18 17 16 13 12 14 15 14 14 14 14 14 14 15 14 13 12 13 15 22 38 54
18 19 20 20 20 23 31 39 49 60 68 60 55 43 40 36 24 18 16 13 11 11 11 10 10 9 9 8 9 11 11 14 16 16 15 15 12 14 17 18 18 17 16 14 14 15 15 14 13 14 15 15 14 14
18 18 18 19 23 31 37 45 55 54 49 49 43 37 42 28 24 18 14 12 11 11 11 10 10 10 9 9 10 10 12 14 18 18 20 21 19 16 16 18 19 20 20 19 18 17 16 16 16 16 15 15 15 14
19 20 22 24 29 34 46 52 53 44 44 44 37 46 38 28 24 17 14 13 12 12 12 11 11 12 12 13 11 11 13 14 16 18 17 16 16 18 18 18 18 19 20 20 20 20 20 21 20 20 20 20 19 18
18 21 26 31 40 46 50 50 37 36 39 31 31 42 33 26 25 21 17 14 12 13 13 12 12 11 12 13 13 12 14 16 18 18 21 20 19 18 17 17 17 18 18 19 19 20 19 18 18 17 17 16 15 14
22 26 32 44 48 52 53 42 35 37 35 24 25 39 35 31 26 23 22 18 16 17 17 13 12 13 15 14 13 14 17 20 20 20 21 23 24 25 25 24 23 23 22 22 20 20 20 20 19 18 16 18 18 20
30 38 45 49 56 51 38 36 34 35 26 21 24 32 34 34 37 32 30 26 22 22 22 21 17 15 15 18 20 19 20 23 24 21 21 24 27 28 31 32 34 35 31 30 29 29 28 28 27 27 28 28 27 25
38 49 50 48 47 37 35 37 39 35 24 21 21 22 27 32 34 40 41 43 52 49 45 40 37 33 31 34 39 42 43 42 39 36 33 33 34 35 35 37 36 37 37 38 38 38 38 39 39 38 35 32 29 25
45 54 57 52 40 35 37 41 41 36 30 23 20 20 20 22 23 29 33 39 40 41 42 40 34 31 29 27 27 28 29 32 36 40 44 47 50 52 53 54 54 53 50 47 45 43 40 35 30 28 27 24 22 19
54 61 61 47 38 37 38 40 38 35 35 33 28 24 22 22 22 23 24 24 24 25 26 26 27 31 36 40 42 44 48 53 56 60 64 65 65 63 60 61 59 55 50 47 41 35 33 31 30 28 26 24 20 17
60 59 49 40 39 42 44 43 43 47 49 46 43 39 37 35 32 31 34 35 38 41 46 49 47 47 49 54 61 64 64 64 65 68 69 70 71 68 66 63 58 54 47 38 33 33 32 30 28 26 23 21 17 15
58 52 42 40 41 40 40 40 44 47 50 49 46 45 47 49 48 47 48 48 45 45 48 54 61 64 65 66 69 73 76 72 72 73 72 72 71 68 63 57 54 50 39 33 32 32 30 29 27 24 21 16 13 12
60 48 39 37 38 39 41 41 40 40 38 38 40 41 43 40 38 40 46 53 59 64 64 66 69 73 72 74 77 80 81 81 80 78 76 74 68 61 55 53 49 42 35 32 31 30 28 25 22 19 16 12 11 10
60 49 43 41 40 39 38 36 37 37 38 40 44 45 50 56 62 66 65 66 68 73 78 80 82 84 85 86 86 84 82 79 75 71 69 64 60 57 53 45 39 35 33 31 29 27 24 22 19 16 13 11 11 10

GFSWCAN_250_rhum_249.txt.gz
RH
58 65 74 83 80 85 85 92 93 93 94 100 100 98 98 97 100 92 87 87 74 69 80 88 80 76 72 59 40 49 37 44 37 26 23 25 17 19 15 15 12 12 12 10 10 7 6 12 13 12 11 11 15 14
50 56 66 70 77 83 87 90 95 100 97 98 99 99 100 100 100 100 98 97 78 63 82 91 86 94 58 42 35 45 35 30 30 26 21 18 14 13 10 8 9 7 6 5 6 5 5 8 10 14 11 11 14 14
46 50 59 63 71 71 72 74 83 90 93 98 99 98 100 100 100 98 99 95 73 68 71 87 93 67 62 47 40 35 32 36 23 20 16 12 8 7 6 7 8 7 10 4 4 5 4 5 8 13 13 14 15 11
45 46 48 48 51 54 62 61 71 83 83 86 91 90 94 99 100 97 86 82 75 64 52 92 86 86 67 57 42 33 31 23 17 12 8 6 5 6 8 8 8 21 10 6 4 5 4 5 7 11 12 14 16 15
31 36 40 42 37 33 36 47 61 64 60 62 71 80 86 84 80 82 89 79 65 63 53 64 89 87 75 60 37 25 19 13 10 8 7 6 7 10 9 8 11 16 11 4 5 6 4 5 6 8 9 10 12 16
20 23 27 28 27 27 31 36 46 46 41 49 65 74 78 80 80 78 79 78 69 59 64 84 66 49 43 33 26 19 12 10 10 15 17 13 14 9 5 7 19 16 7 5 4 5 4 5 5 6 7 9 9 13
16 17 19 21 22 24 26 34 44 42 41 59 71 73 75 73 74 77 83 80 79 82 80 61 57 44 36 28 21 13 12 12 15 15 12 10 9 7 7 13 46 8 5 4 3 4 3 5 5 6 6 9 10 12
16 18 18 19 21 23 27 33 35 36 41 49 55 66 74 75 76 80 79 84 94 94 78 65 53 38 31 23 16 16 28 46 33 17 12 10 10 11 15 12 8 5 4 4 4 4 4 6 7 8 8 9 9 13
16 17 18 18 20 22 24 26 27 32 39 49 54 57 61 66 68 71 85 100 100 92 86 75 55 38 25 18 16 24 37 44 37 29 17 14 11 11 8 9 8 6 4 5 6 4 6 6 10 10 9 12 11 14
17 17 17 19 20 21 23 23 29 38 40 35 33 34 45 58 62 82 98 100 93 96 92 71 46 34 22 16 16 24 34 41 33 29 25 16 10 9 8 7 6 5 4 6 6 6 7 10 8 8 10 14 19 22
17 17 19 20 21 22 24 25 30 33 33 33 31 40 53 58 70 92 100 94 98 99 83 62 40 32 20 14 13 16 24 36 37 34 36 26 18 15 9 7 6 6 6 7 7 10 13 9 8 12 18 20 25 32
17 19 22 22 24 26 26 29 33 34 35 33 38 47 62 65 71 88 95 100 100 92 79 51 35 24 20 15 13 15 16 25 37 45 34 32 30 21 12 7 6 7 8 9 11 17 16 13 14 16 20 22 26 29
18 23 27 27 29 30 30 32 33 37 35 37 47 57 62 70 82 89 100 99 91 84 59 38 35 30 22 16 13 14 16 20 47 61 43 39 37 34 16 10 9 10 11 12 18 24 24 26 28 26 25 26 44 59
17 24 29 30 32 30 31 32 34 36 34 39 50 59 67 86 89 100 100 99 94 68 53 35 27 18 16 16 16 14 15 19 43 55 57 41 28 25 25 15 14 14 15 21 28 32 31 31 31 31 30 34 58 86
17 24 29 32 30 29 30 31 32 33 36 42 49 65 89 95 98 100 100 98 84 71 47 36 28 21 16 14 18 14 13 18 30 45 48 37 25 24 28 28 20 20 26 31 34 33 32 35 29 28 44 66 65 78
16 21 26 28 30 29 30 29 30 28 29 42 60 86 98 100 99 97 90 88 84 59 40 36 30 20 13 14 15 11 12 16 19 28 31 32 21 21 19 23 23 28 32 32 44 44 43 37 28 28 32 50 67 76
12 17 25 27 28 27 27 27 24 22 36 61 88 100 92 91 95 98 90 87 76 50 39 37 28 18 16 13 11 11 10 12 16 22 27 26 21 21 16 18 20 24 31 33 34 39 49 38 34 38 34 33 50 65
10 16 22 27 29 27 30 26 21 28 49 83 97 98 96 97 96 93 92 82 58 42 39 31 20 16 13 12 12 11 10 13 16 18 24 20 20 20 17 14 16 18 22 28 31 34 30 31 37 40 48 35 37 60
11 19 27 29 28 27 24 22 24 37 69 100 100 100 97 96 98 98 84 56 40 40 33 22 18 15 11 12 12 11 10 10 11 14 18 21 21 19 18 16 16 16 16 17 18 23 31 38 36 31 33 33 36 45
15 20 24 26 26 26 27 28 30 56 93 100 96 95 96 93 93 79 54 37 35 27 20 16 14 14 12 11 11 10 10 9 10 15 18 21 20 17 18 18 18 18 16 15 15 16 20 24 32 35 38 39 38 34
14 17 21 22 24 27 30 30 37 69 97 99 100 96 90 87 76 50 39 36 26 20 19 15 13 12 11 11 11 10 10 10 12 16 20 26 23 20 18 19 19 19 19 18 16 16 16 18 23 25 28 32 36 41
12 18 18 17 20 24 26 31 52 74 79 81 80 78 80 69 45 39 37 28 20 18 14 13 12 12 11 11 12 12 12 12 14 20 25 26 23 21 19 19 21 20 19 19 20 20 20 19 20 22 23 23 22 20
15 16 20 28 27 24 26 31 46 56 65 67 71 74 65 46 37 38 32 24 19 15 13 12 12 12 11 12 10 10 10 11 14 18 25 26 23 22 20 20 21 22 22 20 20 20 20 21 21 20 19 18 18 17
16 21 23 22 24 28 31 38 45 51 56 67 68 54 41 34 37 33 26 21 20 15 13 12 12 13 12 11 11 12 15 18 18 21 23 24 25 27 30 30 29 28 26 25 23 22 21 21 21 21 21 20 20 20
20 23 23 24 27 31 36 41 46 56 62 52 45 37 30 39 41 28 26 25 20 15 14 13 16 19 19 17 16 19 21 22 22 20 21 22 23 26 28 30 31 31 31 31 30 30 31 30 28 28 25 23 20 17
24 22 26 29 34 38 44 49 55 48 40 39 36 28 31 45 40 29 28 24 20 18 16 15 18 24 21 22 20 20 19 21 24 25 31 35 34 32 31 29 29 31 35 37 38 39 38 35 32 28 26 26 26 25
23 26 29 35 39 45 49 48 41 37 37 33 24 21 27 51 48 31 31 27 23 21 21 22 25 28 28 25 25 28 30 32 34 33 36 44 48 45 43 40 38 36 36 37 38 38 38 38 39 40 40 38 33 29
23 30 39 45 48 47 40 36 35 37 35 25 24 27 39 37 38 43 43 38 36 42 42 44 53 56 51 49 49 51 52 50 46 40 37 38 38 38 41 46 50 53 55 55 52 50 47 46 43 38 33 31 30 28
30 41 52 58 53 39 32 31 33 33 28 23 21 20 23 35 44 44 45 51 55 55 50 50 46 45 42 37 34 33 35 39 44 48 49 51 56 60 63 66 64 61 58 56 52 50 48 42 37 32 27 26 26 26
49 47 43 42 37 34 38 41 41 39 34 28 23 22 22 22 22 25 30 32 32 28 27 27 28 32 38 46 50 52 55 60 62 66 72 76 73 68 65 64 62 59 57 54 52 50 45 35 28 26 27 27 26 25
45 49 46 39 35 34 36 37 42 44 43 41 35 30 26 24 23 23 24 25 26 27 32 44 52 55 57 59 64 70 74 76 78 78 74 71 70 69 68 66 64 61 56 52 48 41 33 28 28 28 28 27 25 23
52 47 36 30 32 36 43 48 49 47 45 42 43 46 43 38 33 36 39 44 51 54 53 55 63 73 76 78 80 83 82 81 78 75 73 73 72 71 68 64 61 56 51 44 37 32 31 32 32 30 27 26 24 20
51 41 37 40 44 45 43 42 42 44 42 46 50 52 51 51 53 55 52 52 55 61 71 77 79 81 84 84 82 80 77 75 73 72 72 73 72 68 63 59 54 47 41 38 36 36 36 33 30 28 27 22 18 15

GFSWCAN_250_rhum_252.txt.gz
RH
88 98 97 92 91 99 100 100 98 91 79 79 79 81 85 79 77 76 92 81 81 87 95 100 93 98 94 84 69 78 70 66 53 48 48 40 27 27 21 30 38 36 33 28 24 11 10 17 13 11 12 11 10 10
74 83 84 85 87 86 94 91 81 75 72 64 74 76 83 84 83 76 99 86 77 81 91 100 100 96 74 77 79 61 56 60 58 41 34 26 24 27 26 21 32 22 29 21 15 13 13 12 14 10 12 10 11 10
63 64 59 61 61 72 81 82 73 65 63 65 75 85 81 82 91 90 89 88 81 81 78 100 98 74 83 64 61 58 57 60 47 45 32 30 21 26 24 22 19 20 20 12 13 10 9 8 8 8 7 6 7 8
48 49 51 58 63 64 64 61 61 67 71 77 80 81 83 86 88 89 88 81 77 83 80 100 84 87 68 63 56 51 70 56 40 43 36 31 29 25 20 14 13 16 11 11 6 8 7 5 5 6 5 4 5 6
36 37 40 39 40 44 46 57 66 68 70 72 78 82 86 88 90 83 83 87 84 79 86 98 96 94 74 64 56 49 58 53 49 40 36 27 22 17 11 8 9 18 11 6 6 12 4 5 5 5 4 4 4 4
30 32 34 37 36 40 45 52 59 63 65 71 78 83 81 84 82 78 83 86 79 69 66 84 98 91 74 72 70 64 65 70 56 47 36 26 17 10 7 10 19 7 6 5 4 5 3 4 7 7 4 4 4 3
25 28 30 31 30 32 40 47 53 62 68 65 70 72 72 68 67 67 71 64 61 58 54 59 90 97 84 86 95 96 75 65 51 35 24 15 14 16 16 16 8 4 4 5 5 6 5 6 6 5 4 4 3 3
19 20 21 22 24 27 35 40 49 56 58 54 48 47 49 50 54 65 62 60 62 69 69 67 94 78 86 94 94 82 66 46 30 21 17 21 25 13 16 13 10 7 5 6 5 5 6 6 5 6 4 4 4 4
17 16 17 19 19 20 24 33 39 43 47 46 41 43 45 50 51 48 54 63 63 69 70 88 82 88 99 92 75 60 42 30 22 16 15 21 25 33 28 15 9 7 7 7 6 6 5 6 7 3 4 5 5 4
15 16 17 17 17 18 20 22 26 31 37 35 37 36 44 54 48 48 51 57 76 93 90 84 92 95 94 74 66 57 38 30 19 15 18 26 36 38 28 18 11 8 7 7 8 6 5 4 5 5 5 6 6 6
14 16 16 17 18 18 19 20 22 25 27 28 32 37 43 45 40 37 43 62 74 82 84 97 99 88 68 73 69 43 32 26 18 14 21 30 51 40 30 24 18 12 8 7 6 5 5 6 6 6 6 7 8 11
14 15 16 18 19 20 20 21 22 23 24 27 31 36 33 31 29 30 39 54 78 90 100 98 86 72 74 80 56 35 30 23 22 21 16 28 34 47 26 20 20 14 11 8 6 7 7 7 7 8 10 13 14 16
12 14 17 19 20 22 22 21 22 21 23 25 24 24 25 23 22 31 59 96 98 98 93 84 72 75 82 72 47 34 22 18 20 16 15 18 32 36 25 19 19 18 12 8 9 8 8 8 10 13 16 20 18 16
10 14 17 20 23 22 21 21 20 21 22 21 21 21 19 22 36 89 96 93 99 97 81 77 79 82 77 60 43 37 25 16 15 15 13 19 32 37 27 18 25 22 14 11 11 12 14 16 22 23 23 22 25 23
10 14 18 21 23 21 20 20 20 21 20 19 19 19 24 39 62 97 100 98 90 87 79 76 76 74 62 41 35 23 18 22 16 12 15 15 23 33 30 25 23 34 22 17 18 23 27 30 36 35 31 32 32 34
9 13 15 19 22 21 21 22 24 22 21 21 20 26 36 58 82 99 100 95 92 88 84 87 81 72 53 34 28 21 16 18 14 16 15 16 16 25 25 28 24 38 34 26 29 28 32 35 34 42 44 50 48 61
8 11 14 19 20 23 25 24 22 18 18 21 28 39 58 82 88 97 100 100 95 93 94 89 82 72 48 41 30 18 11 12 14 14 14 14 16 20 25 28 23 25 44 38 31 30 36 38 30 40 56 55 59 71
8 10 13 16 20 24 23 23 23 22 23 33 37 60 75 85 92 94 96 96 94 95 90 80 69 56 42 28 17 16 13 13 14 13 10 9 12 17 22 24 22 18 25 44 50 45 37 34 40 46 43 42 44 53
9 10 13 16 24 27 28 28 28 26 30 32 48 75 86 93 100 100 99 98 98 94 82 75 58 42 32 24 15 12 11 12 12 10 8 11 15 19 20 18 19 17 16 20 30 48 50 45 50 52 55 57 52 45
10 11 15 20 21 23 26 27 29 27 32 48 71 89 92 94 95 94 93 94 93 81 73 55 44 31 23 18 13 12 11 11 10 8 8 11 16 20 20 21 17 16 17 18 18 20 22 26 37 47 64 67 54 53
10 12 14 19 20 22 30 31 33 33 42 54 82 93 93 93 90 87 92 95 85 72 59 44 29 20 14 14 14 13 11 10 10 9 10 13 18 24 23 24 20 18 18 20 21 21 21 22 23 24 27 35 43 47
9 10 11 14 18 28 28 31 32 34 42 53 77 87 88 86 85 86 91 84 74 58 44 26 22 17 14 14 12 12 11 10 10 11 14 18 22 24 22 20 19 18 18 19 20 21 22 23 26 29 31 37 52 68
9 10 11 14 22 26 28 28 28 30 38 60 75 75 81 89 87 89 84 69 55 42 28 24 21 17 15 14 13 12 12 12 12 15 23 29 28 26 23 20 19 19 19 19 20 20 20 20 20 20 21 22 24 25
9 9 12 23 31 29 31 33 34 33 38 60 72 82 88 87 85 76 67 53 42 30 26 23 18 15 15 14 14 14 13 12 14 18 20 24 26 26 24 22 21 21 20 20 21 22 23 24 24 24 25 24 23 23
10 18 31 36 32 32 32 33 32 34 49 67 75 83 83 81 78 63 48 44 34 28 25 20 16 16 18 18 17 14 15 17 18 20 25 28 29 26 21 20 22 25 26 25 23 23 22 23 22 22 20 19 18 19
29 34 31 27 29 30 31 30 28 35 51 58 63 66 71 71 58 48 46 36 30 29 21 17 16 16 16 20 21 19 21 25 27 28 30 29 25 23 26 25 25 27 30 32 33 33 31 28 26 27 27 27 28 27
29 24 24 28 27 24 20 21 25 36 46 49 54 59 61 51 38 40 38 30 28 27 24 19 15 13 14 21 26 31 33 34 32 31 32 31 33 34 34 35 41 41 39 39 40 41 44 48 50 50 49 46 42 38
19 19 21 22 23 23 28 34 38 44 50 50 51 48 42 28 29 45 38 34 33 30 23 20 20 19 19 22 26 30 31 32 35 42 49 50 43 40 39 41 45 50 54 59 61 60 59 57 53 46 42 38 33 27
20 22 24 26 30 40 42 40 40 37 36 37 34 27 20 23 48 63 53 45 38 32 36 40 40 41 43 48 52 55 55 48 42 38 38 41 45 49 55 56 60 62 62 62 61 57 53 49 44 41 37 31 30 31
23 25 30 33 35 36 44 53 48 42 41 38 28 23 25 34 50 56 67 63 54 53 52 47 46 42 36 31 29 30 34 39 44 50 55 60 64 66 65 63 63 64 65 64 60 53 48 44 39 35 34 34 32 29
25 29 35 46 58 56 48 39 35 34 31 25 22 20 21 23 30 44 54 54 52 54 42 30 26 26 27 33 40 45 48 56 61 66 69 69 69 68 67 68 67 65 61 57 53 49 41 35 36 35 33 30 28 27
36 49 50 45 43 39 34 35 36 34 31 26 22 20 20 20 21 23 28 29 25 24 25 26 34 46 48 47 52 63 68 70 73 74 73 72 73 72 68 64 62 59 55 50 42 37 36 35 33 32 31 31 31 29
58 56 52 47 39 39 39 38 38 36 35 34 31 28 29 28 27 25 25 26 27 29 38 47 50 53 60 67 71 74 75 76 77 78 78 74 67 64 62 60 57 53 48 42 38 36 35 35 35 35 34 33 30 26

GFSWCAN_250_rhum_258.txt.gz
RH
65 75 70 85 91 100 100 91 97 99 100 96 100 100 100 93 92 95 93 92 96 99 94 92 90 84 64 56 50 47 46 50 63 66 62 65 66 73 71 69 70 66 65 62 50 47 32 27 26 18 19 19 20 24
69 80 83 82 96 100 100 97 94 98 94 97 97 99 100 100 99 89 86 87 93 99 97 91 86 69 62 64 56 58 69 62 61 64 63 63 64 70 76 71 73 66 66 52 45 26 27 23 29 29 32 27 24 14
62 72 76 88 90 98 95 96 100 89 97 99 97 93 83 83 93 91 84 83 84 82 88 94 76 68 68 67 72 79 69 61 68 64 64 64 66 70 70 62 67 86 62 41 18 29 40 43 32 21 22 17 12 11
50 58 62 72 81 88 98 100 99 99 95 94 90 84 76 76 81 78 83 77 73 76 88 78 76 72 70 70 70 75 71 75 72 66 66 70 62 54 58 51 68 67 34 34 26 40 45 35 40 31 20 16 12 10
60 67 72 73 74 82 88 95 98 99 100 90 86 84 76 80 81 85 87 82 79 76 97 93 88 76 73 76 80 80 76 77 67 66 66 63 61 47 52 58 75 32 31 30 37 44 22 31 30 20 12 10 7 5
41 46 54 56 72 87 96 100 100 100 99 98 95 90 87 88 89 96 98 84 80 85 94 98 88 86 86 79 72 70 66 63 75 73 71 72 65 52 55 61 48 31 46 38 33 27 23 16 14 9 7 8 7 5
42 52 68 77 78 82 88 89 90 92 98 99 95 97 96 97 100 100 95 84 82 81 84 90 100 94 83 77 74 65 71 75 68 67 64 55 56 48 40 38 50 42 49 36 25 20 19 10 9 8 6 7 6 6
37 44 60 72 80 91 99 99 100 100 100 97 98 98 97 100 100 100 77 68 67 70 69 70 99 92 62 56 54 62 64 60 56 54 56 51 45 35 41 43 41 47 43 34 20 14 10 10 19 14 8 6 7 6
37 42 46 55 63 70 76 84 91 92 92 93 93 92 95 97 100 85 69 64 66 48 41 58 94 100 72 61 53 49 53 58 60 55 50 52 47 46 57 50 50 44 34 23 15 9 8 10 14 15 9 7 7 6
37 45 52 57 61 63 70 75 78 82 85 88 86 93 100 97 83 59 53 44 42 49 56 67 100 92 81 63 64 71 73 64 62 57 63 69 58 55 65 52 40 29 22 14 10 10 12 9 6 8 10 7 7 6
34 37 44 54 57 59 63 71 75 72 67 69 71 74 71 63 57 43 39 38 36 43 67 97 87 73 64 62 61 63 68 61 65 67 76 92 61 66 60 52 33 23 13 10 10 10 13 18 18 12 9 7 5 5
28 28 33 37 42 46 46 48 51 50 53 66 78 71 57 44 36 34 32 32 46 60 95 99 71 47 52 58 59 58 56 67 76 70 82 89 64 63 56 44 25 16 9 9 11 14 18 18 17 11 8 7 8 7
21 22 25 28 32 35 37 39 40 39 45 48 44 36 33 30 26 33 38 48 70 96 85 59 44 44 52 63 62 63 73 82 77 87 91 69 66 70 67 37 20 14 11 12 15 29 25 24 14 10 10 11 12 11
19 21 23 26 27 28 28 32 34 34 32 28 31 34 29 27 33 42 39 49 72 79 68 60 53 54 62 58 59 71 79 82 86 88 78 70 75 82 48 29 17 13 12 13 26 39 28 26 14 12 16 20 19 20
15 19 20 21 22 24 25 27 27 26 25 26 23 22 29 32 34 31 37 60 63 59 56 56 50 52 54 61 69 72 73 82 92 82 76 87 88 60 40 28 21 13 12 17 31 39 31 29 18 26 42 45 37 40
11 13 16 17 18 21 24 26 25 22 19 18 20 28 33 29 29 26 36 48 53 50 53 50 51 54 54 58 60 67 88 94 81 86 93 82 58 40 29 18 13 11 15 20 29 38 35 33 28 44 57 69 61 58
7 10 13 15 16 17 20 19 17 18 14 22 31 29 27 25 23 24 30 37 45 44 46 47 46 48 49 60 87 89 88 85 94 91 81 49 31 22 15 12 11 12 16 21 34 36 33 31 32 42 59 71 75 68
6 7 9 10 11 13 15 14 16 18 24 33 31 27 23 20 22 25 31 33 34 34 35 38 41 48 68 89 85 82 90 89 87 80 53 30 19 14 12 10 11 13 15 21 38 36 31 31 34 50 70 86 86 78
5 5 6 7 9 11 13 16 18 23 28 26 21 20 21 21 26 30 31 31 29 26 29 35 48 75 77 79 90 94 87 86 83 62 32 20 14 12 10 10 12 13 16 26 44 42 34 33 40 51 68 73 80 76
3 4 5 7 8 10 14 17 20 22 21 23 18 20 25 28 28 29 28 26 26 26 33 52 78 78 85 96 93 90 98 96 63 34 21 14 12 11 11 11 11 13 22 31 39 39 35 32 37 46 62 74 82 90
3 4 4 5 8 12 16 21 23 24 22 24 25 29 31 28 30 29 29 29 30 40 61 71 78 92 96 97 96 98 91 57 37 24 16 13 12 13 11 11 13 18 24 26 28 30 30 29 29 32 37 46 62 74
4 4 6 7 10 14 18 19 23 22 26 24 29 31 32 32 32 31 31 36 48 62 72 86 98 100 100 98 99 84 53 38 28 20 15 14 16 16 18 20 25 31 32 32 30 28 28 29 27 26 27 31 37 37
4 5 7 9 12 15 15 16 21 22 23 30 33 31 29 31 33 31 41 51 63 75 94 100 99 98 99 95 77 51 40 29 21 16 16 22 22 26 27 30 32 30 30 30 28 26 25 23 23 24 24 24 25 26
5 6 8 10 11 10 14 18 20 25 33 37 37 34 32 32 32 43 56 58 71 99 100 100 99 100 98 77 48 39 30 25 22 22 26 26 27 34 41 39 33 32 30 28 27 27 27 27 26 26 27 27 28 28
5 6 7 7 9 14 20 24 26 30 38 40 36 32 32 35 52 60 61 72 92 92 93 98 99 96 73 46 37 30 27 29 28 28 32 34 34 42 41 38 39 42 44 45 42 40 39 38 38 42 43 43 42 43
6 7 8 11 14 19 28 35 36 39 36 35 33 32 41 46 52 60 66 80 82 83 90 97 94 75 52 35 29 25 28 32 36 36 31 34 36 39 39 37 41 42 43 44 46 49 49 47 47 49 50 50 52 54
8 10 12 17 24 30 32 34 34 35 37 39 40 43 47 50 53 57 66 71 78 85 85 88 76 54 36 31 27 27 29 34 34 30 30 32 34 36 38 39 40 42 45 48 49 52 57 61 62 60 59 59 56 52
12 15 20 23 25 27 31 33 38 40 37 32 32 38 37 37 43 53 61 74 81 86 86 72 49 37 37 28 28 31 34 38 35 31 29 31 33 40 43 44 42 44 54 62 66 67 67 66 64 64 62 58 55 50
14 16 17 20 25 31 36 40 40 34 28 28 29 29 26 30 50 66 72 76 80 79 64 44 40 40 28 27 30 35 38 38 37 34 32 36 42 42 44 50 56 62 67 69 70 70 69 67 64 62 58 53 45 41
13 15 21 28 32 35 32 27 22 22 26 26 23 24 32 50 68 75 77 73 67 60 48 40 42 30 27 29 34 40 45 49 48 41 37 41 46 52 58 62 67 73 76 76 74 72 68 65 63 59 52 45 41 40
12 18 25 26 27 27 28 28 29 30 31 31 35 44 60 72 78 74 66 56 53 49 42 42 41 50 59 62 62 56 43 37 39 46 52 58 65 71 74 77 79 78 75 73 72 72 68 63 60 54 47 44 44 43
14 20 24 28 30 30 32 32 31 30 30 34 41 47 54 54 49 43 38 38 46 49 48 49 55 59 57 46 35 33 43 49 55 64 72 77 78 81 83 81 76 74 72 71 66 63 61 59 55 53 51 48 46 41
25 26 29 32 31 30 30 28 26 27 29 36 44 50 52 48 43 36 35 34 47 70 75 74 64 56 37 30 37 51 56 65 72 76 79 82 81 79 76 74 70 68 66 66 68 67 65 61 57 54 51 48 42 37

GFSWCAN_250_rhum_261.txt.gz
RH
32 36 42 46 46 50 48 46 48 52 70 89 100 98 100 100 100 98 98 100 100 99 97 86 76 66 66 63 60 70 69 67 68 63 62 62 56 54 48 55 62 59 55 53 45 37 33 47 64 38 30 34 35 29
31 40 45 50 50 52 55 60 61 64 80 98 100 100 100 100 100 100 96 97 93 92 90 84 74 68 65 73 73 73 78 68 63 64 63 60 56 56 58 60 60 57 56 51 41 32 51 63 37 32 26 24 34 26
49 51 52 52 54 57 59 72 76 82 85 97 92 98 100 100 96 96 100 100 100 99 88 80 74 78 74 68 72 69 58 63 66 60 58 57 58 69 68 61 64 60 55 41 34 64 47 36 34 30 25 22 22 16
46 47 48 50 61 71 83 88 92 88 90 93 99 99 100 100 96 92 93 100 100 95 83 76 72 68 67 72 73 67 60 55 54 58 59 62 61 57 66 68 69 67 45 34 51 47 34 45 47 33 30 21 16 12
48 48 52 50 50 65 81 93 93 100 96 95 100 100 100 99 99 100 99 96 97 95 92 86 77 71 70 72 71 68 62 57 54 58 67 67 69 60 69 78 72 36 40 37 52 38 34 47 41 32 22 20 19 14
48 55 57 55 60 77 83 85 92 94 93 91 89 88 95 99 100 97 92 89 94 100 92 93 81 75 73 72 67 69 74 67 64 68 71 74 68 64 72 79 35 48 43 28 41 44 32 29 35 34 22 18 15 10
49 53 57 59 63 77 86 89 94 98 93 89 88 88 90 94 93 92 87 87 89 91 96 92 82 80 77 76 77 74 76 75 70 69 68 67 65 59 61 49 49 41 41 42 38 37 39 30 33 24 18 12 8 6
53 57 55 52 53 60 64 67 76 82 90 97 96 92 90 97 98 90 84 88 88 82 90 91 78 77 77 79 81 74 69 68 64 58 58 54 58 51 52 48 43 46 39 39 38 36 34 30 23 14 10 8 8 6
46 49 48 46 43 47 52 58 63 66 69 78 89 93 92 99 97 81 81 81 78 86 91 100 99 89 79 76 72 64 58 53 51 52 50 50 53 45 50 54 42 42 49 46 42 42 32 20 11 8 6 7 9 12
34 38 43 47 47 50 55 59 65 74 81 82 84 86 83 95 84 80 76 78 80 84 94 100 100 89 65 58 47 42 36 41 51 50 46 56 49 42 53 45 45 54 53 46 43 43 26 13 8 6 7 10 13 10
31 36 40 42 43 49 52 53 56 60 63 68 75 83 94 97 86 79 81 88 92 92 99 99 98 93 65 50 42 41 47 46 51 50 55 62 38 37 45 52 71 74 65 51 38 26 18 12 11 10 14 17 12 9
31 33 36 40 44 50 54 62 63 70 79 83 92 91 90 87 83 81 85 88 92 97 100 90 61 46 43 44 42 48 57 62 67 54 65 70 32 37 50 70 79 72 55 42 24 17 16 12 11 21 22 16 10 10
25 29 32 34 40 43 47 56 63 64 71 75 77 69 66 60 63 80 92 98 98 95 86 60 44 46 49 49 51 57 66 67 58 66 76 45 34 53 76 81 71 56 51 39 23 21 19 14 22 28 24 13 12 15
24 25 29 32 34 40 44 45 48 57 62 64 58 64 64 73 81 92 90 88 86 82 65 46 42 41 45 54 61 68 66 63 64 68 47 31 55 81 90 78 63 62 60 35 18 19 16 16 32 33 22 18 20 24
18 22 24 27 33 38 40 41 45 50 52 51 55 63 70 72 73 80 85 82 69 51 46 43 41 37 42 56 72 70 60 64 64 40 39 66 85 87 77 69 72 70 48 25 17 16 14 16 38 37 26 27 26 33
12 16 19 22 27 34 35 34 37 38 41 44 46 54 60 64 67 67 66 61 51 45 42 43 41 42 49 68 75 59 55 48 43 56 77 89 86 82 74 76 72 45 30 14 17 13 11 14 37 39 29 34 36 46
9 14 15 17 20 21 25 28 29 27 24 32 45 52 58 61 61 57 58 50 40 39 42 33 39 45 56 66 65 47 39 53 60 70 82 89 84 77 84 71 37 23 16 13 18 13 10 16 36 46 43 42 51 60
8 9 11 12 14 18 20 19 19 21 33 45 55 60 64 61 48 49 39 32 35 39 35 31 36 45 54 55 47 47 61 60 72 90 91 84 85 86 66 27 17 14 12 13 15 11 11 21 35 48 59 54 55 62
7 7 7 8 12 13 12 14 19 28 43 55 73 50 44 35 28 31 26 29 32 30 29 28 31 43 42 41 48 58 61 76 89 92 90 91 83 54 26 17 12 12 11 12 11 10 13 27 33 38 52 57 60 64
6 7 5 5 7 8 11 17 22 28 43 58 40 28 26 24 20 24 25 28 28 25 23 22 31 34 35 43 54 68 78 86 94 93 87 78 52 32 19 15 14 12 11 11 12 17 27 30 31 32 37 48 58 62
4 5 4 4 6 8 12 17 25 39 39 31 22 22 26 23 26 26 28 29 24 22 24 27 31 33 43 56 73 79 92 95 89 85 89 61 32 21 18 17 17 14 15 18 26 33 34 33 32 31 29 30 36 46
4 4 4 5 6 8 13 20 29 28 27 25 21 23 25 27 28 29 28 26 27 29 28 29 36 40 54 80 90 90 90 91 90 89 64 36 22 21 20 22 22 22 26 32 34 32 30 29 29 28 25 24 24 24
3 3 4 5 7 12 17 19 23 18 17 20 22 26 28 28 28 25 28 28 29 29 29 32 42 63 84 93 89 91 91 87 88 62 35 26 24 26 28 29 30 33 36 35 32 29 30 32 32 30 28 27 28 28
4 4 4 6 12 13 13 15 13 13 18 21 22 27 30 31 27 28 31 29 28 31 37 47 68 90 92 89 94 96 91 84 59 35 30 31 27 38 38 40 41 37 31 33 34 35 35 34 34 33 33 34 35 37
4 5 6 9 9 11 10 8 10 15 17 19 29 36 34 29 31 33 30 29 33 36 49 75 85 85 91 98 90 88 73 54 37 30 35 36 36 46 44 44 41 36 35 34 35 41 43 44 45 46 48 48 50 53
5 6 7 7 8 7 9 12 16 18 25 40 39 28 27 30 29 30 29 32 41 53 70 82 86 95 93 91 86 64 48 40 33 30 33 41 44 47 48 51 47 42 44 45 47 53 58 58 56 62 69 71 73 73
5 5 5 6 7 8 10 14 17 24 33 39 37 33 33 35 36 29 27 46 58 71 89 94 94 96 92 75 58 44 35 35 34 35 33 36 47 47 44 47 46 48 50 54 56 56 59 68 75 75 74 73 70 64
4 5 6 8 10 10 12 13 18 33 39 32 31 34 33 33 26 25 42 56 69 83 88 93 89 77 66 57 41 36 36 35 35 39 43 40 43 49 52 54 57 58 51 54 63 70 74 74 75 75 74 72 67 60
6 7 8 10 11 14 16 21 31 34 32 32 33 32 28 22 24 43 62 75 85 86 88 82 69 65 56 42 36 36 37 36 39 38 43 54 62 62 55 52 49 56 68 76 76 73 76 78 78 76 70 64 59 56
8 10 11 13 14 16 22 26 25 25 28 28 24 23 24 31 50 69 78 79 78 78 76 68 61 52 38 34 38 36 36 40 43 43 48 53 52 48 50 59 71 77 78 78 81 82 82 78 72 64 60 59 56 52
9 11 11 12 15 18 18 22 26 29 30 31 33 37 42 54 70 75 75 78 75 68 61 55 53 41 35 37 37 39 44 48 53 50 45 48 59 68 76 77 76 77 80 83 81 75 69 63 60 60 60 59 56 50
8 10 13 16 17 20 26 32 33 34 34 34 35 37 41 51 57 61 66 67 65 59 51 53 51 40 46 58 59 58 54 42 38 44 56 66 74 77 76 76 79 80 78 72 67 64 62 63 63 62 60 56 53 50
8 10 14 19 22 26 30 33 32 30 28 28 31 33 38 46 51 54 60 62 62 57 56 62 50 42 54 67 64 49 38 40 48 57 66 73 78 80 81 81 81 78 71 69 69 69 67 65 64 64 62 62 60 57